• In United Kingdom
  • List of Countries
  • For 7 days
  • Water Temperature
  • Satellite Maps
  • Weather Map
  • Weather Widgets
  • user-avatar
    Login

    Hourly Weather Canillo

    Today, 24 August, Thursday

    Time Temperature Precipitation Wind Pressure Humidity
    00:00 +14°C° 0.2 mm 1 mps 622 mmHg 77%
    01:00 +14°C° 0.1 mm 1 mps 622 mmHg 77%
    02:00 +14°C° 0.1 mm 1 mps 622 mmHg 76%
    03:00 +13°C° 0.1 mm 1 mps 621 mmHg 76%
    04:00 +13°C° 0 mm 1 mps 621 mmHg 73%
    05:00 +13°C° 0 mm 1 mps 621 mmHg 70%
    06:00 +13°C° 0 mm 1 mps 621 mmHg 67%
    07:00 +16°C° 0 mm 1 mps 623 mmHg 58%
    08:00 +20°C° 0 mm 1 mps 624 mmHg 49%
    09:00 +23°C° 0 mm 2 mps 625 mmHg 40%
    10:00 +24°C° 0 mm 2 mps 626 mmHg 38%
    11:00 +25°C° 0 mm 3 mps 626 mmHg 36%
    12:00 +26°C° 0 mm 3 mps 626 mmHg 33%
    13:00 +26°C° 0 mm 3 mps 626 mmHg 35%
    14:00 +25°C° 0 mm 3 mps 625 mmHg 36%
    15:00 +25°C° 0 mm 4 mps 625 mmHg 38%
    16:00 +24°C° 0 mm 3 mps 624 mmHg 43%
    17:00 +21°C° 0 mm 3 mps 624 mmHg 47%
    18:00 +20°C° 0 mm 2 mps 623 mmHg 52%
    19:00 +18°C° 0 mm 2 mps 623 mmHg 55%
    20:00 +16°C° 0 mm 2 mps 623 mmHg 58%
    21:00 +15°C° 0 mm 2 mps 622 mmHg 61%
    22:00 +14°C° 0 mm 2 mps 622 mmHg 59%
    23:00 +14°C° 0 mm 1 mps 622 mmHg 57%

    Tomorrow, 25 August, Friday

    Time Temperature Precipitation Wind Pressure Humidity
    00:00 +14°C° 0 mm 1 mps 622 mmHg 55%
    01:00 +13°C° 0 mm 1 mps 622 mmHg 56%
    02:00 +13°C° 0 mm 2 mps 621 mmHg 57%
    03:00 +12°C° 0 mm 2 mps 621 mmHg 59%
    04:00 +13°C° 0.1 mm 2 mps 621 mmHg 60%
    05:00 +13°C° 0.1 mm 2 mps 621 mmHg 60%
    06:00 +13°C° 0.1 mm 2 mps 622 mmHg 61%
    07:00 +16°C° 0.1 mm 2 mps 623 mmHg 54%
    08:00 +19°C° 0.1 mm 2 mps 624 mmHg 47%
    09:00 +23°C° 0.1 mm 2 mps 625 mmHg 40%
    10:00 +24°C° 0 mm 3 mps 625 mmHg 37%
    11:00 +25°C° 0 mm 3 mps 625 mmHg 35%
    12:00 +26°C° 0 mm 4 mps 626 mmHg 32%
    13:00 +26°C° 0 mm 4 mps 625 mmHg 32%
    14:00 +26°C° 0 mm 4 mps 625 mmHg 32%
    15:00 +26°C° 0 mm 4 mps 625 mmHg 32%
    16:00 +24°C° 0 mm 3 mps 624 mmHg 39%
    17:00 +21°C° 0 mm 3 mps 623 mmHg 45%
    18:00 +19°C° 0 mm 2 mps 622 mmHg 51%
    19:00 +18°C° 0.2 mm 2 mps 622 mmHg 56%
    20:00 +16°C° 0.2 mm 2 mps 622 mmHg 60%
    21:00 +14°C° 0.2 mm 2 mps 621 mmHg 64%
    22:00 +14°C° 0.4 mm 2 mps 621 mmHg 63%
    23:00 +14°C° 0.4 mm 2 mps 621 mmHg 62%

    Day after tomorrow, 26 August, Saturday

    Time Temperature Precipitation Wind Pressure Humidity
    00:00 +14°C° 0.4 mm 2 mps 621 mmHg 62%
    01:00 +13°C° 0.2 mm 2 mps 621 mmHg 61%
    02:00 +13°C° 0.2 mm 2 mps 621 mmHg 60%
    03:00 +13°C° 0.2 mm 2 mps 620 mmHg 60%
    04:00 +13°C° 0.1 mm 2 mps 620 mmHg 57%
    05:00 +13°C° 0.1 mm 2 mps 621 mmHg 55%
    06:00 +14°C° 0.1 mm 2 mps 621 mmHg 52%
    07:00 +16°C° 0.1 mm 2 mps 622 mmHg 48%
    08:00 +19°C° 0.1 mm 2 mps 623 mmHg 43%
    09:00 +21°C° 0.1 mm 3 mps 624 mmHg 39%
    10:00 +22°C° 0 mm 3 mps 624 mmHg 36%
    11:00 +25°C° 0 mm 3 mps 624 mmHg 33%
    12:00 +26°C° 0 mm 4 mps 625 mmHg 30%
    13:00 +26°C° 0 mm 4 mps 624 mmHg 31%
    14:00 +26°C° 0 mm 4 mps 624 mmHg 31%
    15:00 +26°C° 0 mm 4 mps 624 mmHg 32%
    16:00 +24°C° 0 mm 3 mps 623 mmHg 38%
    17:00 +21°C° 0 mm 3 mps 622 mmHg 45%
    18:00 +19°C° 0 mm 2 mps 622 mmHg 52%
    19:00 +18°C° 0 mm 2 mps 622 mmHg 55%
    20:00 +16°C° 0 mm 2 mps 621 mmHg 58%
    21:00 +15°C° 0 mm 2 mps 621 mmHg 61%
    22:00 +15°C° 0 mm 2 mps 621 mmHg 59%
    23:00 +14°C° 0 mm 2 mps 621 mmHg 56%

    27 August, Sunday

    Time Temperature Precipitation Wind Pressure Humidity
    00:00 +14°C° 0 mm 2 mps 621 mmHg 54%
    01:00 +14°C° 0 mm 1 mps 621 mmHg 53%
    02:00 +14°C° 0 mm 1 mps 621 mmHg 52%
    03:00 +14°C° 0 mm 1 mps 620 mmHg 51%
    04:00 +14°C° 0 mm 1 mps 620 mmHg 53%
    05:00 +14°C° 0 mm 1 mps 620 mmHg 55%
    06:00 +14°C° 0 mm 1 mps 620 mmHg 57%
    07:00 +16°C° 0 mm 1 mps 622 mmHg 52%
    08:00 +19°C° 0 mm 2 mps 623 mmHg 47%
    09:00 +23°C° 0 mm 2 mps 625 mmHg 42%
    10:00 +24°C° 0 mm 2 mps 625 mmHg 39%
    11:00 +25°C° 0 mm 2 mps 625 mmHg 36%
    12:00 +26°C° 0 mm 2 mps 626 mmHg 33%
    13:00 +26°C° 0.2 mm 2 mps 625 mmHg 36%
    14:00 +25°C° 0.2 mm 2 mps 625 mmHg 38%
    15:00 +25°C° 0.2 mm 3 mps 625 mmHg 41%
    16:00 +23°C° 0.3 mm 2 mps 624 mmHg 48%
    17:00 +20°C° 0.3 mm 2 mps 623 mmHg 55%
    18:00 +20°C° 0.3 mm 1 mps 623 mmHg 61%
    19:00 +19°C° 0.1 mm 1 mps 623 mmHg 63%
    20:00 +16°C° 0.1 mm 1 mps 623 mmHg 64%
    21:00 +15°C° 0.1 mm 1 mps 622 mmHg 66%
    22:00 +15°C° 0 mm 1 mps 622 mmHg 62%
    23:00 +15°C° 0 mm 1 mps 622 mmHg 59%

    28 August, Monday

    Time Temperature Precipitation Wind Pressure Humidity
    00:00 +15°C° 0 mm 1 mps 622 mmHg 55%
    01:00 +15°C° 0 mm 1 mps 622 mmHg 54%
    02:00 +15°C° 0 mm 1 mps 622 mmHg 52%
    03:00 +15°C° 0 mm 1 mps 622 mmHg 51%
    04:00 +15°C° 0 mm 1 mps 622 mmHg 52%
    05:00 +15°C° 0 mm 1 mps 622 mmHg 54%
    06:00 +15°C° 0 mm 1 mps 622 mmHg 55%
    07:00 +19°C° 0 mm 1 mps 623 mmHg 49%
    08:00 +21°C° 0 mm 1 mps 624 mmHg 44%
    09:00 +24°C° 0 mm 2 mps 625 mmHg 38%
    10:00 +25°C° 0 mm 2 mps 626 mmHg 36%
    11:00 +26°C° 0 mm 2 mps 626 mmHg 33%
    12:00 +27°C° 0 mm 3 mps 626 mmHg 31%
    13:00 +27°C° 0 mm 3 mps 626 mmHg 32%
    14:00 +27°C° 0 mm 3 mps 625 mmHg 33%
    15:00 +27°C° 0 mm 3 mps 625 mmHg 35%
    16:00 +25°C° 0.2 mm 2 mps 624 mmHg 43%
    17:00 +23°C° 0.2 mm 2 mps 623 mmHg 51%
    18:00 +21°C° 0.2 mm 1 mps 623 mmHg 58%
    19:00 +20°C° 0.2 mm 1 mps 622 mmHg 63%
    20:00 +19°C° 0.2 mm 1 mps 622 mmHg 68%
    21:00 +16°C° 0.2 mm 1 mps 621 mmHg 73%
    22:00 +16°C° 0 mm 1 mps 621 mmHg 72%
    23:00 +16°C° 0 mm 1 mps 621 mmHg 72%

    29 August, Tuesday

    Time Temperature Precipitation Wind Pressure Humidity
    00:00 +15°C° 0 mm 1 mps 621 mmHg 71%
    01:00 +15°C° 0 mm 1 mps 621 mmHg 69%
    02:00 +15°C° 0 mm 2 mps 621 mmHg 68%
    03:00 +15°C° 0 mm 2 mps 621 mmHg 66%
    04:00 +15°C° 0 mm 1 mps 621 mmHg 66%
    05:00 +15°C° 0 mm 1 mps 621 mmHg 66%
    06:00 +15°C° 0 mm 1 mps 621 mmHg 66%
    07:00 +18°C° 0 mm 1 mps 622 mmHg 59%
    08:00 +19°C° 0 mm 2 mps 623 mmHg 53%
    09:00 +21°C° 0 mm 2 mps 624 mmHg 47%
    10:00 +24°C° 0 mm 2 mps 624 mmHg 43%
    11:00 +25°C° 0 mm 3 mps 624 mmHg 39%
    12:00 +26°C° 0 mm 3 mps 625 mmHg 36%
    13:00 +26°C° 0.1 mm 3 mps 624 mmHg 38%
    14:00 +25°C° 0.1 mm 3 mps 624 mmHg 40%
    15:00 +25°C° 0.1 mm 3 mps 624 mmHg 42%
    16:00 +23°C° 0.2 mm 2 mps 623 mmHg 47%
    17:00 +21°C° 0.2 mm 2 mps 623 mmHg 52%
    18:00 +20°C° 0.2 mm 2 mps 622 mmHg 57%
    19:00 +18°C° 0.6 mm 2 mps 622 mmHg 63%
    20:00 +16°C° 0.6 mm 1 mps 622 mmHg 69%
    21:00 +15°C° 0.6 mm 1 mps 622 mmHg 75%
    22:00 +14°C° 0.1 mm 1 mps 622 mmHg 74%
    23:00 +14°C° 0.1 mm 1 mps 621 mmHg 74%
    Show more